This demonstration page uses our WeatherBlox Daily Observations layout. Learn more.

Left ArrowRight Arrow

44.89941, -97.11507

Hourly Observations for November 28, 2020

Temp ( °F °C ) Dew Point ( °F °C ) Humidity (%) Winds ( mph kmh ) Pressure ( in mb ) Visibility ( mi km ) Precip ( " mm )
12:53 am 00:53 Clear 32 0 22 -5.6 66 66 SSW 12 19 30.01 1016 10 16 0.00 0.00
1:53 am 01:53 Clear 32 0 22 -5.6 66 66 SSW 12 19 30.00 1016 10 16 0.00 0.00
2:53 am 02:53 Clear 27 -2.8 20 -6.7 75 75 SW 7 11 30.01 1016 10 16 0.00 0.00
3:53 am 03:53 Clear 27 -2.8 21 -6.1 78 78 SW 8 13 30.00 1016 10 16 0.00 0.00
4:53 am 04:53 Clear 28 -2.2 21 -6.1 75 75 SW 9 15 29.99 1016 10 16 0.00 0.00
5:53 am 05:53 Clear 25 -3.9 20 -6.7 81 81 S 6 9 29.99 1016 10 16 0.00 0.00
6:53 am 06:53 Clear 27 -2.8 20 -6.7 75 75 SSE 5 7 29.99 1016 10 16 0.00 0.00
7:53 am 07:53 Sunny 23 -5 19 -7.2 85 85 S 9 15 29.98 1015 10 16 0.00 0.00
8:53 am 08:53 Sunny 28 -2.2 23 -5 81 81 S 6 9 29.98 1015 10 16 0.00 0.00
9:53 am 09:53 Sunny 37 2.8 24 -4.4 59 59 WSW 8 13 29.97 1015 10 16 0.00 0.00
10:53 am 10:53 Sunny 42 5.6 24 -4.4 49 49 WSW 12 19 29.96 1015 10 16 0.00 0.00
11:53 am 11:53 Sunny 47 8.3 24 -4.4 41 41 WSW 9 15 29.95 1014 10 16 0.00 0.00
12:53 pm 12:53 Sunny 50 10 24 -4.4 36 36 SW 12 19 29.91 1013 10 16 0.00 0.00
1:53 pm 13:53 Sunny 52 11.1 24 -4.4 34 34 SW 10 17 29.89 1012 10 16 0.00 0.00
2:53 pm 14:53 Sunny 51 10.6 23 -5 33 33 WSW 13 20 29.90 1012 10 16 0.00 0.00
3:53 pm 15:53 Sunny 48 8.9 26 -3.3 42 42 SW 9 15 29.89 1012 10 16 0.00 0.00
4:53 pm 16:53 Clear 41 5 26 -3.3 55 55 S 9 15 29.90 1013 10 16 0.00 0.00
5:53 pm 17:53 Clear 35 1.7 24 -4.4 64 64 SSW 8 13 29.91 1013 10 16 0.00 0.00
6:53 pm 18:53 Clear 35 1.7 25 -3.9 67 67 SW 9 15 29.93 1013 10 16 0.00 0.00
7:53 pm 19:53 Clear 40 4.4 24 -4.4 53 53 WSW 9 15 29.93 1014 10 16 0.00 0.00
8:53 pm 20:53 Clear 38 3.3 23 -5 55 55 WSW 10 17 29.96 1014 10 16 0.00 0.00
9:53 pm 21:53 Clear 37 2.8 23 -5 57 57 W 13 20 29.96 1015 10 16 0.00 0.00
10:53 pm 22:53 Clear 39 3.9 22 -5.6 50 50 NW 9 15 29.96 1015 10 16 0.00 0.00
11:53 pm 23:53 Clear 40 4.4 23 -5 51 51 NW 14 22 29.99 1016 10 16 0.00 0.00

Powered by AerisWeather